Location: Staunton
(38.1490°N, 79.0720°W)
Time: 03:28:36
(UTC-04:00)

ISS - Pass Details

Date: 15 September 2017
Orbit: 401 x 407 km, 51.6° (Epoch: 23 September)

Event Time Altitude Azimuth Distance (km) Brightness Sun altitude
Exits shadow 05:30:03 - 332° (NNW) 1,858 -0.6 -17.8°
Reaches altitude 10° 05:31:47 10° 354° (N) 1,471 -0.9 -17.5°
Maximum altitude 05:33:02 12° 17° (NNE) 1,373 -0.7 -17.2°
Drops below altitude 10° 05:34:17 10° 39° (NE) 1,469 -0.1 -17.0°
Sets 05:37:32 0° 74° (ENE) 2,327 1.9 -16.4°
